(361887) = 2008 FZ81 = 2008 GV135

Discovered at Kitt Peak on 2005-09-13 by Spacewatch.

Orbit

Orbit type: Main Belt

Note: WebGL enabled browser required.

epoch2024-03-31.0
epoch JD2460400.5
perihelion date2022-07-03.18166
perihelion JD2459763.68167
argument of perihelion (°)257.91242
ascending node (°)178.49695
inclination (°)11.99524
eccentricity0.1260910
perihelion distance (AU)2.6360224
Tisserand w.r.t. Jupiter3.2
ΔV w.r.t. Earth (km/sec)10.8
semimajor axis (AU)3.0163581
mean anomaly (°)119.81061
mean daily motion (°/day)0.18813940
aphelion distance (AU)3.397
period (years)5.24
P-vector [x]0.23442307
P-vector [y]0.95304690
P-vector [z]0.19169617
Q-vector [x]-0.97211939
Q-vector [y]0.22871080
Q-vector [z]0.05172295
absolute magnitude16.57
phase slope0.15
uncertainty0
referenceE2024-GJ9
observations used224
oppositions12
arc length (days)6781
first opposition used2005
last opposition used2024
residual rms (arc-secs)0.73
perturbers coarse indicatorM-v
perturbers precise indicator003Ek
first observation date used2005-09-13.0
last observation date used2024-04-07.0
computer nameMPCLINUX
JD of orbit computation2456819.442022
perihelion JD uncertainty (days)9.8762E-05
argument of perihelion uncertainty (°)2.7959E-05
ascending node uncertainty (°)2.1758E-05
inclination uncertainty (°)5.3898E-06
eccentricity uncertainty 4.9025E-08
perihelion distance uncertainty (AU)1.4487E-07
Minimum Orbit Intersection Distances (in AU)
for orbit epoch: 2460400.5, reference: E2024-GJ9
Mercury2.33952
Venus1.93467
Earth1.68316
Mars1.16516
Jupiter1.98323
Saturn6.43373
Uranus15.3726
Neptune26.9695

Observations

209 total observations over interval: 2005 09 13.25305 – 2023 02 12.188940
These data are available for download (format description).

Date (UT) J2000 RA J2000 Dec Magn Location Ref
2005 09 13.25305 22 51 31.48 -02 40 47.0 20.5 V 691 – Steward Observatory, Kitt Peak-Spacewatch MPS 420347
2005 09 13.27049 22 51 30.75 -02 40 55.4 20.9 V 691 – Steward Observatory, Kitt Peak-Spacewatch MPS 420347
2005 09 13.29127 22 51 29.87 -02 41 05.5 21.0 V 691 – Steward Observatory, Kitt Peak-Spacewatch MPS 420347
2005 10 27.14772 22 35 13.66 -07 27 11.6 21.7 V G96 – Mt. Lemmon Survey MPS 420347
2005 10 27.15425 22 35 13.66 -07 27 12.8 21.3 V G96 – Mt. Lemmon Survey MPS 420347
2005 10 27.16084 22 35 13.66 -07 27 14.5 21.2 V G96 – Mt. Lemmon Survey MPS 420347
2005 10 27.16756 22 35 13.70 -07 27 15.9 20.9 V G96 – Mt. Lemmon Survey MPS 420347
2008 03 05.35744 12 58 56.43 -04 04 32.3   691 – Steward Observatory, Kitt Peak-Spacewatch MPS 309516
2008 03 05.37510 12 58 55.89 -04 04 25.0   691 – Steward Observatory, Kitt Peak-Spacewatch MPS 309516
2008 03 05.39276 12 58 55.39 -04 04 18.3   691 – Steward Observatory, Kitt Peak-Spacewatch MPS 309516
2008 03 27.34918 12 45 24.62 -01 18 31.4 20.7 V G96 – Mt. Lemmon Survey MPS 245858
2008 03 27.35632 12 45 24.37 -01 18 28.5 20.7 V G96 – Mt. Lemmon Survey MPS 245858
2008 03 27.36380 12 45 24.01 -01 18 24.6 21.1 V G96 – Mt. Lemmon Survey MPS 245858
2008 03 27.37100 12 45 23.68 -01 18 21.6 20.7 V G96 – Mt. Lemmon Survey MPS 245858
2008 04 03.28358 12 40 31.00 -00 24 07.0 21.1 V G96 – Mt. Lemmon Survey MPS 245858
2008 04 03.29013 12 40 30.75 -00 24 04.0 20.9 V G96 – Mt. Lemmon Survey MPS 245858
2008 04 03.29670 12 40 30.46 -00 24 01.4 21.0 V G96 – Mt. Lemmon Survey MPS 245858
2008 04 03.30326 12 40 30.18 -00 23 58.1 21.0 V G96 – Mt. Lemmon Survey MPS 245858
2008 04 06.17097 12 38 30.18 -00 02 06.2 20.5 V 691 – Steward Observatory, Kitt Peak-Spacewatch MPS 252530
2008 04 06.18857 12 38 29.45 -00 01 58.4 20.7 V 691 – Steward Observatory, Kitt Peak-Spacewatch MPS 252530
2008 04 06.20619 12 38 28.71 -00 01 50.6 20.5 V 691 – Steward Observatory, Kitt Peak-Spacewatch MPS 252530
2008 04 08.15049 12 37 08.64 +00 12 39.1 20.9 V 691 – Steward Observatory, Kitt Peak-Spacewatch MPC 63525
2008 04 08.16811 12 37 07.89 +00 12 46.6 21.0 V 691 – Steward Observatory, Kitt Peak-Spacewatch MPC 63525
2008 04 08.18573 12 37 07.14 +00 12 54.7 20.7 V 691 – Steward Observatory, Kitt Peak-Spacewatch MPC 63525
2011 10 23.46466 04 49 10.173 +07 34 13.30 20.9 w F51 – Pan-STARRS 1, Haleakala MPS 420347
2011 10 23.47954 04 49 09.969 +07 34 07.29 20.9 w F51 – Pan-STARRS 1, Haleakala MPS 420347
2011 10 23.49448 04 49 09.764 +07 34 00.86 20.8 w F51 – Pan-STARRS 1, Haleakala MPS 420347
2011 12 01.33916 04 25 44.012 +03 48 24.04 20.3 w F51 – Pan-STARRS 1, Haleakala MPS 420347
2011 12 01.35300 04 25 43.305 +03 48 21.24 20.5 w F51 – Pan-STARRS 1, Haleakala MPS 420347
2011 12 01.36687 04 25 42.599 +03 48 18.43 20.4 w F51 – Pan-STARRS 1, Haleakala MPS 420347
2011 12 01.38072 04 25 41.887 +03 48 15.54 20.3 w F51 – Pan-STARRS 1, Haleakala MPS 420347
2013 03 13.32674 11 26 08.41 +01 16 15.7 20.2 V G96 – Mt. Lemmon Survey MPS 459322
2013 03 13.33272 11 26 08.16 +01 16 18.4 20.3 V G96 – Mt. Lemmon Survey MPS 459322
2013 03 13.34012 11 26 07.80 +01 16 22.1 20.4 V G96 – Mt. Lemmon Survey MPS 459322
2013 03 13.34611 11 26 07.58 +01 16 25.2 20.2 V G96 – Mt. Lemmon Survey MPS 459322
2013 03 13.39665 11 26 05.31 +01 16 50.7 20.4 V G96 – Mt. Lemmon Survey MPS 459322
2013 03 13.40205 11 26 05.06 +01 16 53.0 20.2 V G96 – Mt. Lemmon Survey MPS 459322
2013 03 13.40745 11 26 04.81 +01 16 56.1 20.2 V G96 – Mt. Lemmon Survey MPS 459322
2013 03 13.41282 11 26 04.63 +01 16 58.5 20.1 V G96 – Mt. Lemmon Survey MPS 459322
2013 04 03.32170 11 12 48.16 +04 01 32.9 20.7 V G96 – Mt. Lemmon Survey MPS 461678
2013 04 03.32735 11 12 47.95 +04 01 35.3 21.1 V G96 – Mt. Lemmon Survey MPS 461678
2013 04 03.33295 11 12 47.77 +04 01 37.5 20.7 V G96 – Mt. Lemmon Survey MPS 461678
2013 04 03.33859 11 12 47.62 +04 01 39.8 20.8 V G96 – Mt. Lemmon Survey MPS 461678
2013 04 11.19051 11 09 19.04 +04 52 24.7 21.1 V G96 – Mt. Lemmon Survey MPS 462743
2013 04 11.19743 11 09 18.86 +04 52 26.9 21.7 V G96 – Mt. Lemmon Survey MPS 462743
2013 04 11.20438 11 09 18.72 +04 52 29.3 21.2 V G96 – Mt. Lemmon Survey MPS 462743
2013 04 11.21131 11 09 18.54 +04 52 32.0 21.3 V G96 – Mt. Lemmon Survey MPS 462743
2013 04 14.23521 11 08 16.33 +05 09 44.0 20.7 V G96 – Mt. Lemmon Survey MPS 464079
2013 04 14.24229 11 08 16.18 +05 09 46.1 21.0 V G96 – Mt. Lemmon Survey MPS 464079
2013 04 14.24933 11 08 16.04 +05 09 48.4 21.0 V G96 – Mt. Lemmon Survey MPS 464079
2013 04 14.25638 11 08 15.90 +05 09 50.4 21.0 V G96 – Mt. Lemmon Survey MPS 464079
2014 05 07.44732 16 22 49.048 -06 44 42.50 21.4 w F51 – Pan-STARRS 1, Haleakala MPS 515222
2014 05 07.45953 16 22 48.544 -06 44 39.19 21.6 w F51 – Pan-STARRS 1, Haleakala MPS 515222
2014 05 07.47175 16 22 48.062 -06 44 35.59 21.8 w F51 – Pan-STARRS 1, Haleakala MPS 515222
2014 05 07.48399 16 22 47.544 -06 44 32.45 21.6 w F51 – Pan-STARRS 1, Haleakala MPS 515222
2014 05 23.46456 16 11 09.726 -05 39 10.47 21.5 w F51 – Pan-STARRS 1, Haleakala MPS 517849
2014 05 23.47618 16 11 09.171 -05 39 08.10 21.4 w F51 – Pan-STARRS 1, Haleakala MPS 517849
2014 05 23.48779 16 11 08.615 -05 39 05.57 21.4 w F51 – Pan-STARRS 1, Haleakala MPS 517849
2014 05 23.49940 16 11 08.061 -05 39 03.21 21.5 w F51 – Pan-STARRS 1, Haleakala MPS 517849
2014 06 04.32109 16 02 12.51 -05 06 24.8 21.2 V G96 – Mt. Lemmon Survey MPS 518799
2014 06 04.32568 16 02 12.28 -05 06 23.9 21.1 V G96 – Mt. Lemmon Survey MPS 518799
2014 06 04.33027 16 02 12.09 -05 06 23.7 21.1 V G96 – Mt. Lemmon Survey MPS 518799
2014 06 04.33485 16 02 11.90 -05 06 22.6 21.2 V G96 – Mt. Lemmon Survey MPS 518799
2015 06 27.52552 20 53 09.117 -03 30 57.26 21.5 w F51 – Pan-STARRS 1, Haleakala MPS 614582
2015 06 27.53798 20 53 08.796 -03 30 57.10 21.6 w F51 – Pan-STARRS 1, Haleakala MPS 614582
2015 06 27.55043 20 53 08.496 -03 30 57.47 22.2 w F51 – Pan-STARRS 1, Haleakala MPS 614582
2015 06 27.56287 20 53 08.161 -03 30 57.52 21.6 w F51 – Pan-STARRS 1, Haleakala MPS 614582
2015 07 18.47041 20 41 24.670 -04 05 06.14 21.0 w F51 – Pan-STARRS 1, Haleakala MPS 617523
2015 07 18.48282 20 41 24.144 -04 05 08.58 21.1 w F51 – Pan-STARRS 1, Haleakala MPS 617523
2015 07 18.49524 20 41 23.609 -04 05 10.82 21.1 w F51 – Pan-STARRS 1, Haleakala MPS 617523
2015 08 12.33150 20 23 07.283 -05 58 02.58 21.1 w F51 – Pan-STARRS 1, Haleakala MPS 621056
2015 08 12.34388 20 23 06.748 -05 58 06.69 21.3 w F51 – Pan-STARRS 1, Haleakala MPS 621056
2015 08 12.35630 20 23 06.200 -05 58 10.95 21.3 w F51 – Pan-STARRS 1, Haleakala MPS 621056
2015 08 12.36874 20 23 05.655 -05 58 15.14 21.2 w F51 – Pan-STARRS 1, Haleakala MPS 621056
2016 10 23.17748 02 46 15.54 +03 54 14.0 20.5 G G45 – Space Surveillance Telescope, Atom Site MPS 1610114
2016 10 23.28131 02 46 11.11 +03 53 24.4 19.8 G G45 – Space Surveillance Telescope, Atom Site MPS 1610114
2016 10 23.33252 02 46 08.87 +03 52 59.2 20.5 G G45 – Space Surveillance Telescope, Atom Site MPS 1610114
2016 10 23.38401 02 46 06.66 +03 52 33.8 20.3 G G45 – Space Surveillance Telescope, Atom Site MPS 1610114
2016 10 23.44041 02 46 04.22 +03 52 06.3 20.4 G G45 – Space Surveillance Telescope, Atom Site MPS 1610114
2016 10 23.44209 02 46 04.17 +03 52 05.1 20.8 G G45 – Space Surveillance Telescope, Atom Site MPS 1610114
2016 10 23.47471 02 46 02.79 +03 51 49.7 20.1 G G45 – Space Surveillance Telescope, Atom Site MPS 1610114
2016 10 23.50503 02 46 01.52 +03 51 34.5 20.6 G G45 – Space Surveillance Telescope, Atom Site MPS 1610114
2016 10 26.40381 02 43 58.53 +03 28 19.5 20.3 V G96 – Mt. Lemmon Survey MPS 739551
2016 10 26.40809 02 43 58.31 +03 28 18.1 19.8 V G96 – Mt. Lemmon Survey MPS 739551
2016 10 26.41237 02 43 58.16 +03 28 15.7 20.0 V G96 – Mt. Lemmon Survey MPS 739551
2016 10 26.41665 02 43 57.96 +03 28 13.8 20.0 V G96 – Mt. Lemmon Survey MPS 739551
2016 10 27.36114 02 43 16.95 +03 20 46.6 19.9 V G96 – Mt. Lemmon Survey MPS 739551
2016 10 27.36541 02 43 16.78 +03 20 44.6 19.9 V G96 – Mt. Lemmon Survey MPS 739551
2016 10 27.36971 02 43 16.59 +03 20 42.6 20.6 V G96 – Mt. Lemmon Survey MPS 739551
2016 10 27.37399 02 43 16.37 +03 20 40.2 20.5 V G96 – Mt. Lemmon Survey MPS 739551
